This demonstration page uses our WeatherBlox Daily Observations layout. Learn more.

Left ArrowRight Arrow

44.89941, -97.11507

Hourly Observations for May 13, 2022

Temp ( °F °C ) Dew Point ( °F °C ) Humidity (%) Winds ( mph kmh ) Pressure ( in mb ) Visibility ( mi km ) Precip ( " mm )
12:53 am 00:53 Clear 59 15 55 12.8 87 87 SSW 16 26 29.69 1005 10 16 0.00 0.00
1:53 am 01:53 Clear 58 14.4 53 11.7 84 84 SSW 13 20 29.68 1005 10 16 0.00 0.00
2:53 am 02:53 Clear 57 13.9 49 9.4 74 74 SSW 17 28 29.68 1005 10 16 0.00 0.00
3:53 am 03:53 Clear 55 12.8 47 8.3 74 74 SW 17 28 29.71 1006 10 16 0.00 0.00
4:53 am 04:53 Clear 53 11.7 45 7.2 74 74 WSW 23 37 29.75 1008 10 16 0.00 0.00
5:53 am 05:53 Clear 51 10.6 44 6.7 77 77 SW 16 26 29.75 1007 10 16 0.00 0.00
6:53 am 06:53 Sunny 52 11.1 45 7.2 77 77 SSW 15 24 29.78 1009 10 16 0.00 0.00
7:53 am 07:53 Sunny 55 12.8 45 7.2 69 69 SW 22 35 29.78 1009 10 16 0.00 0.00
8:53 am 08:53 Sunny 58 14.4 45 7.2 62 62 SW 28 44 29.79 1009 10 16 0.00 0.00
9:53 am 09:53 Sunny 60 15.6 46 7.8 60 60 SW 31 50 29.80 1009 10 16 0.00 0.00
10:53 am 10:53 Sunny 62 16.7 45 7.2 54 54 SW 26 43 29.81 1010 10 16 0.00 0.00
11:53 am 11:53 Sunny 65 18.3 47 8.3 52 52 SW 23 37 29.83 1010 10 16 0.00 0.00
12:53 pm 12:53 Sunny 67 19.4 45 7.2 45 45 WSW 28 44 29.82 1010 10 16 0.00 0.00
1:53 pm 13:53 Sunny 69 20.6 43 6.1 39 39 SW 29 46 29.83 1010 10 16 0.00 0.00
2:53 pm 14:53 Sunny 71 21.7 42 5.6 35 35 SW 29 46 29.82 1010 10 16 0.00 0.00
3:53 pm 15:53 Mostly Sunny 72 22.2 38 3.3 29 29 WSW 31 50 29.83 1010 10 16 0.00 0.00
4:53 pm 16:53 Mostly Sunny 71 21.7 37 2.8 29 29 WSW 24 39 29.83 1010 10 16 0.00 0.00
5:53 pm 17:53 Sunny 72 22.2 38 3.3 29 29 WSW 21 33 29.83 1010 10 16 0.00 0.00
6:53 pm 18:53 Sunny 70 21.1 38 3.3 31 31 WSW 16 26 29.84 1011 10 16 0.00 0.00
7:53 pm 19:53 Sunny 68 20 37 2.8 32 32 WSW 12 19 29.85 1011 10 16 0.00 0.00
8:53 pm 20:53 Clear 65 18.3 39 3.9 39 39 W 3 6 29.86 1011 10 16 0.00 0.00
9:53 pm 21:53 Clear 57 13.9 43 6.1 60 60 SE 3 6 29.87 1011 10 16 0.00 0.00
10:53 pm 22:53 Clear 54 12.2 43 6.1 67 67 SSE 3 6 29.87 1012 10 16 0.00 0.00
11:53 pm 23:53 Clear 53 11.7 43 6.1 69 69 SE 6 9 29.85 1011 10 16 0.00 0.00

Powered by AerisWeather